Time,TemperatureF,DewpointF,PressureIn,WindDirection,WindDirectionDegrees,WindSpeedMPH,WindSpeedGustMPH,Humidity,HourlyPrecipIn,Conditions,Clouds,dailyrainin,SoftwareType,DateUTC
2013-03-08 00:00:00,30.3,28.0,29.93,NW,326,3.0,6.0,91,0.00,,,0.00,Wunderground v.1.12,2013-03-08 05:00:00,
2013-03-08 00:07:00,30.3,28.3,29.93,NNW,333,3.0,4.0,92,0.00,,,0.00,Wunderground v.1.12,2013-03-08 05:07:00,
2013-03-08 00:08:00,30.0,28.0,29.92,NNW,338,3.0,15.0,92,0.00,,,0.00,Wunderground v.1.12,2013-03-08 05:08:00,
2013-03-08 00:10:00,30.1,28.1,29.93,NW,323,3.0,10.0,92,0.00,,,0.00,Wunderground v.1.12,2013-03-08 05:10:00,
2013-03-08 00:11:00,30.1,28.1,29.93,NNW,337,3.0,3.0,92,0.00,,,0.00,Wunderground v.1.12,2013-03-08 05:11:00,
2013-03-08 01:13:00,29.8,28.0,29.91,NW,323,5.0,5.0,93,0.00,,,0.00,Wunderground v.1.12,2013-03-08 06:13:00,
2013-03-08 01:18:00,29.8,28.0,29.91,NE,46,6.0,6.0,93,0.00,,,0.00,Wunderground v.1.12,2013-03-08 06:18:00,
2013-03-08 01:21:00,29.7,28.2,29.91,NNW,338,5.0,20.0,94,0.00,,,0.00,Wunderground v.1.12,2013-03-08 06:21:00,
2013-03-08 01:23:00,29.7,28.2,29.91,North,5,6.0,9.0,94,0.00,,,0.00,Wunderground v.1.12,2013-03-08 06:23:00,
2013-03-08 01:29:00,29.7,28.2,29.91,NNW,336,5.0,9.0,94,0.00,,,0.00,Wunderground v.1.12,2013-03-08 06:29:00,
2013-03-08 01:35:00,29.7,28.2,29.91,North,355,7.0,14.0,94,0.00,,,0.00,Wunderground v.1.12,2013-03-08 06:35:00,
2013-03-08 01:37:00,29.7,28.2,29.91,NNW,338,5.0,20.0,94,0.00,,,0.00,Wunderground v.1.12,2013-03-08 06:37:00,
2013-03-08 01:40:00,29.7,28.2,29.91,NNW,348,6.0,11.0,94,0.00,,,0.00,Wunderground v.1.12,2013-03-08 06:40:00,
2013-03-08 01:46:00,29.5,28.0,29.90,NW,304,5.0,5.0,94,0.00,,,0.00,Wunderground v.1.12,2013-03-08 06:46:00,
2013-03-08 01:53:00,29.5,28.0,29.90,NE,39,6.0,6.0,94,0.00,,,0.00,Wunderground v.1.12,2013-03-08 06:53:00,
2013-03-08 01:58:00,29.5,28.2,29.90,NNE,19,5.0,8.0,95,0.00,,,0.00,Wunderground v.1.12,2013-03-08 06:58:00,
2013-03-08 02:03:00,29.5,28.2,29.89,NNW,342,5.0,13.0,95,0.00,,,0.00,Wunderground v.1.12,2013-03-08 07:03:00,
2013-03-08 02:05:00,29.5,28.2,29.89,North,0,6.0,17.0,95,0.00,,,0.00,Wunderground v.1.12,2013-03-08 07:05:00,
2013-03-08 02:08:00,29.5,28.2,29.89,North,350,6.0,9.0,95,0.00,,,0.00,Wunderground v.1.12,2013-03-08 07:08:00,
2013-03-08 02:14:00,29.5,28.2,29.89,NNE,13,6.0,7.0,95,0.00,,,0.00,Wunderground v.1.12,2013-03-08 07:14:00,
2013-03-08 02:20:00,29.5,28.2,29.89,NNE,33,5.0,5.0,95,0.00,,,0.00,Wunderground v.1.12,2013-03-08 07:20:00,
2013-03-08 02:25:00,29.5,28.8,29.89,NNW,344,5.0,11.0,97,0.00,,,0.00,Wunderground v.1.12,2013-03-08 07:25:00,
2013-03-08 02:30:00,29.5,28.2,29.89,NW,324,4.0,5.0,95,0.00,,,0.00,Wunderground v.1.12,2013-03-08 07:30:00,
2013-03-08 02:35:00,29.7,28.4,29.89,NW,326,5.0,10.0,95,0.00,,,0.00,Wunderground v.1.12,2013-03-08 07:35:00,
2013-03-08 02:36:00,29.5,28.2,29.89,NNW,338,5.0,16.0,95,0.00,,,0.00,Wunderground v.1.12,2013-03-08 07:36:00,
2013-03-08 02:41:00,29.7,28.4,29.89,NNW,344,5.0,9.0,95,0.00,,,0.00,Wunderground v.1.12,2013-03-08 07:41:00,
2013-03-08 02:46:00,29.7,28.4,29.89,North,350,5.0,5.0,95,0.00,,,0.00,Wunderground v.1.12,2013-03-08 07:46:00,
2013-03-08 02:53:00,29.5,28.2,29.89,NNW,338,4.0,8.0,95,0.00,,,0.00,Wunderground v.1.12,2013-03-08 07:53:00,
2013-03-08 02:58:00,29.5,28.2,29.89,NNE,17,5.0,10.0,95,0.00,,,0.00,Wunderground v.1.12,2013-03-08 07:58:00,
2013-03-08 03:03:00,29.5,28.2,29.89,NNE,18,5.0,7.0,95,0.00,,,0.00,Wunderground v.1.12,2013-03-08 08:03:00,
2013-03-08 03:05:00,29.5,28.2,29.89,NNW,338,5.0,16.0,95,0.00,,,0.00,Wunderground v.1.12,2013-03-08 08:05:00,
2013-03-08 03:08:00,29.5,28.2,29.89,North,355,4.0,4.0,95,0.00,,,0.00,Wunderground v.1.12,2013-03-08 08:08:00,
2013-03-08 03:13:00,29.5,28.2,29.89,NW,326,4.0,6.0,95,0.00,,,0.00,Wunderground v.1.12,2013-03-08 08:13:00,
2013-03-08 03:18:00,29.5,28.2,29.89,NNW,346,5.0,9.0,95,0.00,,,0.00,Wunderground v.1.12,2013-03-08 08:18:00,
2013-03-08 03:24:00,29.5,28.2,29.89,NNE,21,5.0,5.0,95,0.00,,,0.00,Wunderground v.1.12,2013-03-08 08:24:00,
2013-03-08 03:30:00,29.5,28.2,29.89,NNW,342,5.0,8.0,95,0.00,,,0.00,Wunderground v.1.12,2013-03-08 08:30:00,
2013-03-08 03:36:00,29.5,28.2,29.89,North,9,3.0,5.0,95,0.00,,,0.00,Wunderground v.1.12,2013-03-08 08:36:00,
2013-03-08 03:38:00,29.5,28.2,29.89,NNW,338,4.0,16.0,95,0.00,,,0.00,Wunderground v.1.12,2013-03-08 08:38:00,
2013-03-08 03:41:00,29.5,28.5,29.89,NNW,344,3.0,8.0,96,0.00,,,0.00,Wunderground v.1.12,2013-03-08 08:41:00,
2013-03-08 03:48:00,29.4,28.4,29.89,NNW,336,4.0,11.0,96,0.00,,,0.00,Wunderground v.1.12,2013-03-08 08:48:00,
2013-03-08 03:53:00,29.4,28.4,29.89,NNE,17,4.0,4.0,96,0.00,,,0.00,Wunderground v.1.12,2013-03-08 08:53:00,
2013-03-08 03:58:00,29.4,28.4,29.89,NE,42,4.0,9.0,96,0.00,,,0.00,Wunderground v.1.12,2013-03-08 08:58:00,
2013-03-08 04:03:00,29.4,28.4,29.89,North,355,4.0,7.0,96,0.00,,,0.00,Wunderground v.1.12,2013-03-08 09:03:00,
2013-03-08 04:05:00,29.4,28.4,29.89,North,0,4.0,15.0,96,0.00,,,0.00,Wunderground v.1.12,2013-03-08 09:05:00,
2013-03-08 04:09:00,29.4,28.4,29.89,North,10,2.0,3.0,96,0.00,,,0.00,Wunderground v.1.12,2013-03-08 09:09:00,
2013-03-08 04:15:00,29.4,28.4,29.89,NW,325,3.0,3.0,96,0.00,,,0.00,Wunderground v.1.12,2013-03-08 09:15:00,
2013-03-08 05:18:00,29.1,28.1,29.88,NNW,340,4.0,4.0,96,0.00,,,0.00,Wunderground v.1.12,2013-03-08 10:18:00,
2013-03-08 05:23:00,29.3,28.3,29.88,NNE,27,5.0,15.0,96,0.00,,,0.00,Wunderground v.1.12,2013-03-08 10:23:00,
2013-03-08 05:29:00,29.3,28.3,29.89,NNW,338,5.0,13.0,96,0.00,,,0.00,Wunderground v.1.12,2013-03-08 10:29:00,
2013-03-08 05:35:00,29.1,28.1,29.89,NNW,341,4.0,4.0,96,0.00,,,0.00,Wunderground v.1.12,2013-03-08 10:35:00,
2013-03-08 05:37:00,29.1,28.1,29.89,North,0,5.0,19.0,96,0.00,,,0.00,Wunderground v.1.12,2013-03-08 10:37:00,
2013-03-08 05:40:00,29.1,28.1,29.89,NE,48,3.0,5.0,96,0.00,,,0.00,Wunderground v.1.12,2013-03-08 10:40:00,
2013-03-08 05:45:00,29.1,28.1,29.89,NW,323,3.0,7.0,96,0.00,,,0.00,Wunderground v.1.12,2013-03-08 10:45:00,
2013-03-08 05:50:00,29.1,28.1,29.89,NE,43,3.0,4.0,96,0.00,,,0.00,Wunderground v.1.12,2013-03-08 10:50:00,
2013-03-08 05:55:00,29.1,28.1,29.89,NE,34,4.0,6.0,96,0.00,,,0.00,Wunderground v.1.12,2013-03-08 10:55:00,
2013-03-08 06:01:00,29.1,28.1,29.89,NE,46,4.0,9.0,96,0.00,,,0.00,Wunderground v.1.12,2013-03-08 11:01:00,
2013-03-08 06:06:00,29.0,28.0,29.89,North,355,4.0,11.0,96,0.00,,,0.00,Wunderground v.1.12,2013-03-08 11:06:00,
2013-03-08 06:08:00,29.1,28.1,29.89,NNE,23,3.0,14.0,96,0.00,,,0.00,Wunderground v.1.12,2013-03-08 11:08:00,
2013-03-08 06:13:00,29.0,28.0,29.89,North,5,4.0,7.0,96,0.00,,,0.00,Wunderground v.1.12,2013-03-08 11:13:00,
2013-03-08 06:18:00,29.0,28.0,29.89,North,349,4.0,12.0,96,0.00,,,0.00,Wunderground v.1.12,2013-03-08 11:18:00,
2013-03-08 06:23:00,28.8,27.8,29.89,North,349,4.0,5.0,96,0.00,,,0.00,Wunderground v.1.12,2013-03-08 11:23:00,
2013-03-08 06:29:00,28.8,27.8,29.90,NNE,20,5.0,6.0,96,0.00,,,0.00,Wunderground v.1.12,2013-03-08 11:29:00,
2013-03-08 06:35:00,28.8,27.8,29.90,NNW,336,5.0,6.0,96,0.00,,,0.00,Wunderground v.1.12,2013-03-08 11:35:00,
2013-03-08 06:36:00,28.8,27.8,29.90,NNW,338,4.0,15.0,96,0.00,,,0.00,Wunderground v.1.12,2013-03-08 11:36:00,
2013-03-08 06:41:00,28.8,27.8,29.90,NNW,342,5.0,6.0,96,0.00,,,0.00,Wunderground v.1.12,2013-03-08 11:41:00,
2013-03-08 06:48:00,28.8,27.8,29.90,NNE,31,4.0,10.0,96,0.00,,,0.00,Wunderground v.1.12,2013-03-08 11:48:00,
2013-03-08 06:53:00,28.8,27.8,29.90,NE,39,3.0,4.0,96,0.00,,,0.00,Wunderground v.1.12,2013-03-08 11:53:00,
2013-03-08 06:59:00,28.7,27.7,29.91,North,355,4.0,6.0,96,0.00,,,0.00,Wunderground v.1.12,2013-03-08 11:59:00,
2013-03-08 07:06:00,28.7,27.7,29.91,North,11,4.0,4.0,96,0.00,,,0.00,Wunderground v.1.12,2013-03-08 12:06:00,
2013-03-08 07:08:00,28.7,27.7,29.91,NNW,338,4.0,16.0,96,0.00,,,0.00,Wunderground v.1.12,2013-03-08 12:08:00,
2013-03-08 07:11:00,28.7,27.7,29.91,NNW,340,4.0,4.0,96,0.00,,,0.00,Wunderground v.1.12,2013-03-08 12:11:00,
2013-03-08 08:17:00,28.7,27.7,29.91,NNW,342,4.0,16.0,96,0.00,,,0.00,Wunderground v.1.12,2013-03-08 13:17:00,
2013-03-08 08:23:00,28.8,27.8,29.91,NE,41,4.0,4.0,96,0.00,,,0.00,Wunderground v.1.12,2013-03-08 13:23:00,
2013-03-08 08:29:00,28.8,27.8,29.91,NE,40,3.0,4.0,96,0.00,,,0.00,Wunderground v.1.12,2013-03-08 13:29:00,
2013-03-08 08:34:00,28.8,27.8,29.91,NNW,327,3.0,10.0,96,0.00,,,0.00,Wunderground v.1.12,2013-03-08 13:34:00,
2013-03-08 08:37:00,28.8,27.8,29.91,NNW,338,4.0,14.0,96,0.00,,,0.00,Wunderground v.1.12,2013-03-08 13:37:00,
2013-03-08 08:40:00,29.0,28.0,29.91,NE,44,5.0,11.0,96,0.00,,,0.00,Wunderground v.1.12,2013-03-08 13:40:00,
2013-03-08 08:46:00,29.0,28.0,29.92,NNE,19,5.0,5.0,96,0.00,,,0.00,Wunderground v.1.12,2013-03-08 13:46:00,
2013-03-08 08:51:00,29.0,28.0,29.92,NNE,32,4.0,5.0,96,0.00,,,0.00,Wunderground v.1.12,2013-03-08 13:51:00,
2013-03-08 08:56:00,29.1,28.1,29.92,NNW,340,3.0,4.0,96,0.00,,,0.00,Wunderground v.1.12,2013-03-08 13:56:00,
2013-03-08 09:03:00,29.1,28.1,29.92,NNE,15,3.0,9.0,96,0.00,,,0.00,Wunderground v.1.12,2013-03-08 14:03:00,
2013-03-08 09:06:00,29.1,28.1,29.92,NNW,338,4.0,14.0,96,0.00,,,0.00,Wunderground v.1.12,2013-03-08 14:06:00,
2013-03-08 09:08:00,29.1,28.1,29.92,NNE,32,3.0,4.0,96,0.00,,,0.00,Wunderground v.1.12,2013-03-08 14:08:00,
2013-03-08 09:13:00,29.3,28.3,29.92,NE,49,4.0,9.0,96,0.00,,,0.00,Wunderground v.1.12,2013-03-08 14:13:00,
2013-03-08 09:19:00,29.3,28.3,29.92,North,355,3.0,3.0,96,0.00,,,0.00,Wunderground v.1.12,2013-03-08 14:19:00,
2013-03-08 09:24:00,29.4,28.4,29.92,NE,47,3.0,3.0,96,0.00,,,0.00,Wunderground v.1.12,2013-03-08 14:24:00,
2013-03-08 09:30:00,29.5,28.5,29.92,NW,310,3.0,3.0,96,0.00,,,0.00,Wunderground v.1.12,2013-03-08 14:30:00,
2013-03-08 09:35:00,29.7,28.7,29.92,North,5,2.0,3.0,96,0.00,,,0.00,Wunderground v.1.12,2013-03-08 14:35:00,
2013-03-08 09:36:00,29.5,28.5,29.92,NE,45,3.0,15.0,96,0.00,,,0.00,Wunderground v.1.12,2013-03-08 14:36:00,
2013-03-08 09:41:00,30.0,29.0,29.92,North,355,3.0,3.0,96,0.00,,,0.00,Wunderground v.1.12,2013-03-08 14:41:00,
2013-03-08 09:46:00,30.0,29.0,29.92,NNE,17,3.0,7.0,96,0.00,,,0.00,Wunderground v.1.12,2013-03-08 14:46:00,
2013-03-08 09:51:00,30.1,28.8,29.92,NNE,13,4.0,8.0,95,0.00,,,0.00,Wunderground v.1.12,2013-03-08 14:51:00,
2013-03-08 09:58:00,30.1,28.8,29.92,NE,42,4.0,4.0,95,0.00,,,0.00,Wunderground v.1.12,2013-03-08 14:58:00,
2013-03-08 10:03:00,30.3,29.0,29.93,NW,317,3.0,5.0,95,0.00,,,0.00,Wunderground v.1.12,2013-03-08 15:03:00,
2013-03-08 10:07:00,30.1,28.8,29.93,NNE,23,3.0,16.0,95,0.00,,,0.00,Wunderground v.1.12,2013-03-08 15:07:00,
2013-03-08 10:08:00,30.3,29.0,29.93,NNE,19,4.0,9.0,95,0.00,,,0.00,Wunderground v.1.12,2013-03-08 15:08:00,
2013-03-08 10:13:00,30.3,29.0,29.93,North,360,5.0,9.0,95,0.00,,,0.00,Wunderground v.1.12,2013-03-08 15:13:00,
2013-03-08 10:19:00,30.4,29.1,29.93,NNE,24,4.0,4.0,95,0.00,,,0.00,Wunderground v.1.12,2013-03-08 15:19:00,
2013-03-08 10:25:00,30.4,28.9,29.93,ENE,77,4.0,7.0,94,0.00,,,0.00,Wunderground v.1.12,2013-03-08 15:25:00,
2013-03-08 10:30:00,30.4,29.1,29.93,NE,39,4.0,4.0,95,0.00,,,0.00,Wunderground v.1.12,2013-03-08 15:30:00,
2013-03-08 10:36:00,30.4,29.1,29.93,NNE,26,4.0,6.0,95,0.00,,,0.00,Wunderground v.1.12,2013-03-08 15:36:00,
2013-03-08 10:37:00,30.4,29.1,29.93,NE,45,4.0,16.0,95,0.00,,,0.00,Wunderground v.1.12,2013-03-08 15:37:00,
2013-03-08 10:43:00,30.4,29.1,29.93,NW,319,5.0,9.0,95,0.00,,,0.00,Wunderground v.1.12,2013-03-08 15:43:00,
2013-03-08 10:48:00,30.4,29.1,29.93,NNW,328,4.0,6.0,95,0.00,,,0.00,Wunderground v.1.12,2013-03-08 15:48:00,
2013-03-08 10:54:00,30.4,29.1,29.93,North,360,4.0,4.0,95,0.00,,,0.00,Wunderground v.1.12,2013-03-08 15:54:00,
2013-03-08 11:00:00,30.6,29.3,29.94,NW,320,4.0,4.0,95,0.00,,,0.00,Wunderground v.1.12,2013-03-08 16:00:00,
2013-03-08 11:05:00,30.6,29.3,29.94,NNW,327,5.0,12.0,95,0.00,,,0.00,Wunderground v.1.12,2013-03-08 16:05:00,
2013-03-08 11:11:00,30.6,29.3,29.94,NNE,13,3.0,4.0,95,0.00,,,0.00,Wunderground v.1.12,2013-03-08 16:11:00,
2013-03-08 11:16:00,30.6,29.3,29.94,NNW,346,2.0,2.0,95,0.00,,,0.00,Wunderground v.1.12,2013-03-08 16:16:00,
2013-03-08 11:23:00,30.7,29.4,29.94,NNE,28,3.0,9.0,95,0.00,,,0.00,Wunderground v.1.12,2013-03-08 16:23:00,
2013-03-08 11:28:00,30.7,29.7,29.94,NNW,340,3.0,8.0,96,0.00,,,0.00,Wunderground v.1.12,2013-03-08 16:28:00,
2013-03-08 11:33:00,30.9,29.9,29.94,NW,319,3.0,4.0,96,0.00,,,0.00,Wunderground v.1.12,2013-03-08 16:33:00,
2013-03-08 11:37:00,30.7,29.7,29.94,NNE,23,3.0,17.0,96,0.00,,,0.00,Wunderground v.1.12,2013-03-08 16:37:00,
2013-03-08 11:39:00,31.0,30.0,29.94,NE,44,3.0,7.0,96,0.00,,,0.00,Wunderground v.1.12,2013-03-08 16:39:00,
2013-03-08 11:45:00,31.2,30.2,29.92,NNW,331,4.0,4.0,96,0.00,,,0.00,Wunderground v.1.12,2013-03-08 16:45:00,
2013-03-08 11:51:00,31.5,30.5,29.92,North,11,3.0,4.0,96,0.00,,,0.00,Wunderground v.1.12,2013-03-08 16:51:00,
2013-03-08 11:58:00,31.8,30.5,29.92,NE,39,3.0,5.0,95,0.00,,,0.00,Wunderground v.1.12,2013-03-08 16:58:00,
2013-03-08 12:03:00,32.1,30.8,29.93,North,355,3.0,11.0,95,0.00,,,0.00,Wunderground v.1.12,2013-03-08 17:03:00,
2013-03-08 12:06:00,31.9,30.6,29.93,NNW,338,3.0,15.0,95,0.00,,,0.00,Wunderground v.1.12,2013-03-08 17:06:00,
2013-03-08 12:09:00,32.2,30.7,29.93,North,355,3.0,4.0,94,0.00,,,0.00,Wunderground v.1.12,2013-03-08 17:09:00,
2013-03-08 12:14:00,32.5,31.0,29.93,East,86,4.0,6.0,94,0.00,,,0.00,Wunderground v.1.12,2013-03-08 17:14:00,
2013-03-08 12:20:00,32.7,30.9,29.93,North,355,5.0,7.0,93,0.00,,,0.00,Wunderground v.1.12,2013-03-08 17:20:00,
2013-03-08 12:26:00,32.8,31.0,29.93,North,355,4.0,4.0,93,0.00,,,0.00,Wunderground v.1.12,2013-03-08 17:26:00,
2013-03-08 12:31:00,32.9,31.1,29.94,ENE,63,2.0,3.0,93,0.00,,,0.00,Wunderground v.1.12,2013-03-08 17:31:00,
2013-03-08 12:36:00,33.1,31.3,29.94,NNW,335,4.0,7.0,93,0.00,,,0.00,Wunderground v.1.12,2013-03-08 17:36:00,
2013-03-08 12:37:00,32.8,31.0,29.94,NNW,338,4.0,16.0,93,0.00,,,0.01,Wunderground v.1.12,2013-03-08 17:37:00,
2013-03-08 12:43:00,33.2,31.4,29.94,NW,326,4.0,4.0,93,0.00,,,0.00,Wunderground v.1.12,2013-03-08 17:43:00,
2013-03-08 12:48:00,33.4,31.6,29.93,North,5,3.0,7.0,93,0.00,,,0.00,Wunderground v.1.12,2013-03-08 17:48:00,
2013-03-08 12:53:00,33.5,31.4,29.93,NE,54,4.0,9.0,92,0.00,,,0.00,Wunderground v.1.12,2013-03-08 17:53:00,
2013-03-08 12:58:00,33.7,31.6,29.93,NNW,329,3.0,4.0,92,0.00,,,0.01,Wunderground v.1.12,2013-03-08 17:58:00,
2013-03-08 13:03:00,33.8,31.7,29.93,NNE,22,3.0,5.0,92,0.00,,,0.01,Wunderground v.1.12,2013-03-08 18:03:00,
2013-03-08 13:06:00,33.8,31.7,29.93,NNW,338,3.0,14.0,92,0.01,,,0.01,Wunderground v.1.12,2013-03-08 18:06:00,
2013-03-08 13:09:00,34.1,32.0,29.93,NW,317,3.0,7.0,92,0.00,,,0.01,Wunderground v.1.12,2013-03-08 18:09:00,
2013-03-08 13:14:00,34.3,32.2,29.94,NNE,17,4.0,4.0,92,0.00,,,0.01,Wunderground v.1.12,2013-03-08 18:14:00,
2013-03-08 13:20:00,34.3,31.9,29.94,NNE,23,4.0,7.0,91,0.00,,,0.01,Wunderground v.1.12,2013-03-08 18:20:00,
2013-03-08 13:26:00,34.6,32.0,29.94,NW,320,4.0,13.0,90,0.00,,,0.01,Wunderground v.1.12,2013-03-08 18:26:00,
2013-03-08 13:31:00,34.9,32.0,29.93,ENE,78,4.0,4.0,89,0.00,,,0.01,Wunderground v.1.12,2013-03-08 18:31:00,
2013-03-08 13:37:00,34.7,31.8,29.93,NNE,23,4.0,16.0,89,0.01,,,0.01,Wunderground v.1.12,2013-03-08 18:37:00,
2013-03-08 13:38:00,35.0,30.9,29.93,NE,38,4.0,10.0,85,0.00,,,0.01,Wunderground v.1.12,2013-03-08 18:38:00,
2013-03-08 13:43:00,35.3,30.4,29.93,NNW,341,4.0,9.0,82,0.00,,,0.01,Wunderground v.1.12,2013-03-08 18:43:00,
2013-03-08 13:48:00,35.5,29.6,29.94,North,5,4.0,14.0,79,0.00,,,0.01,Wunderground v.1.12,2013-03-08 18:48:00,
2013-03-08 13:53:00,35.6,29.7,29.94,North,355,5.0,7.0,79,0.00,,,0.01,Wunderground v.1.12,2013-03-08 18:53:00,
2013-03-08 13:59:00,36.0,31.3,29.94,NW,326,4.0,9.0,83,0.00,,,0.01,Wunderground v.1.12,2013-03-08 18:59:00,
2013-03-08 14:04:00,36.2,32.1,29.94,North,9,3.0,4.0,85,0.00,,,0.01,Wunderground v.1.12,2013-03-08 19:04:00,
2013-03-08 14:05:00,36.0,31.3,29.94,NNW,338,4.0,26.0,83,0.00,,,0.04,Wunderground v.1.12,2013-03-08 19:05:00,
2013-03-08 14:10:00,36.3,32.8,29.94,North,9,3.0,5.0,87,0.00,,,0.02,Wunderground v.1.12,2013-03-08 19:10:00,
2013-03-08 14:15:00,36.5,33.0,29.94,NE,56,3.0,4.0,87,0.07,,,0.03,Wunderground v.1.12,2013-03-08 19:15:00,
2013-03-08 14:20:00,36.6,33.1,29.94,NW,321,4.0,4.0,87,0.07,,,0.03,Wunderground v.1.12,2013-03-08 19:20:00,
2013-03-08 14:26:00,37.2,34.0,29.94,North,351,4.0,6.0,88,0.05,,,0.03,Wunderground v.1.12,2013-03-08 19:26:00,
2013-03-08 14:33:00,37.6,34.1,29.94,ENE,70,3.0,3.0,87,0.05,,,0.04,Wunderground v.1.12,2013-03-08 19:33:00,
2013-03-08 14:37:00,37.5,34.0,29.94,North,0,3.0,15.0,87,0.03,,,0.07,Wunderground v.1.12,2013-03-08 19:37:00,
2013-03-08 14:38:00,37.9,34.1,29.94,NNW,344,3.0,5.0,86,0.06,,,0.05,Wunderground v.1.12,2013-03-08 19:38:00,
2013-03-08 14:43:00,38.2,34.4,29.94,NNW,335,2.0,6.0,86,0.06,,,0.05,Wunderground v.1.12,2013-03-08 19:43:00,
2013-03-08 14:49:00,38.3,33.6,29.94,NNE,16,3.0,5.0,83,0.08,,,0.06,Wunderground v.1.12,2013-03-08 19:49:00,
2013-03-08 14:55:00,38.6,31.7,29.94,NNE,30,3.0,7.0,76,0.06,,,0.06,Wunderground v.1.12,2013-03-08 19:55:00,
2013-03-08 15:00:00,39.2,31.3,29.94,NNE,27,3.0,3.0,73,0.06,,,0.07,Wunderground v.1.12,2013-03-08 20:00:00,
2013-03-08 15:05:00,39.5,30.2,29.94,NNW,344,2.0,2.0,69,0.07,,,0.08,Wunderground v.1.12,2013-03-08 20:05:00,
2013-03-08 15:06:00,39.2,31.3,29.94,NNW,338,3.0,18.0,73,0.06,,,0.09,Wunderground v.1.12,2013-03-08 20:06:00,
2013-03-08 15:11:00,39.9,27.5,29.94,NNW,337,3.0,5.0,61,0.07,,,0.08,Wunderground v.1.12,2013-03-08 20:11:00,
2013-03-08 15:18:00,40.5,26.9,29.95,North,350,3.0,4.0,58,0.06,,,0.09,Wunderground v.1.12,2013-03-08 20:18:00,
2013-03-08 15:23:00,40.8,26.3,29.95,NNE,28,2.0,6.0,56,0.06,,,0.09,Wunderground v.1.12,2013-03-08 20:23:00,
2013-03-08 15:31:00,41.9,25.5,29.95,North,5,2.0,3.0,52,0.06,,,0.09,Wunderground v.1.12,2013-03-08 20:31:00,
2013-03-08 15:36:00,42.3,25.0,29.95,North,11,3.0,3.0,50,0.05,,,0.10,Wunderground v.1.12,2013-03-08 20:36:00,
2013-03-08 15:41:00,42.5,26.1,29.95,North,11,2.0,2.0,52,0.05,,,0.10,Wunderground v.1.12,2013-03-08 20:41:00,
2013-03-08 15:48:00,42.6,25.2,29.95,North,355,1.0,3.0,50,0.05,,,0.11,Wunderground v.1.12,2013-03-08 20:48:00,
2013-03-08 15:53:00,42.8,23.4,29.95,NE,38,2.0,2.0,46,0.05,,,0.11,Wunderground v.1.12,2013-03-08 20:53:00,
2013-03-08 15:58:00,42.9,24.0,29.95,NE,52,2.0,2.0,47,0.05,,,0.12,Wunderground v.1.12,2013-03-08 20:58:00,
2013-03-08 16:03:00,42.9,24.0,29.96,NE,42,1.0,3.0,47,0.05,,,0.12,Wunderground v.1.12,2013-03-08 21:03:00,
2013-03-08 16:06:00,42.9,24.0,29.96,North,0,1.0,10.0,47,0.05,,,0.14,Wunderground v.1.12,2013-03-08 21:06:00,
2013-03-08 16:09:00,43.1,23.7,29.96,NNE,12,1.0,1.0,46,0.05,,,0.12,Wunderground v.1.12,2013-03-08 21:09:00,
2013-03-08 16:14:00,43.2,22.7,29.97,NNE,15,1.0,1.0,44,0.05,,,0.13,Wunderground v.1.12,2013-03-08 21:14:00,
2013-03-08 16:20:00,43.5,23.0,29.97,NNE,15,1.0,2.0,44,0.05,,,0.13,Wunderground v.1.12,2013-03-08 21:20:00,
2013-03-08 16:26:00,43.8,22.7,29.97,NE,46,1.0,5.0,43,0.04,,,0.14,Wunderground v.1.12,2013-03-08 21:26:00,
2013-03-08 16:31:00,43.9,23.4,29.97,NNW,343,2.0,2.0,44,0.04,,,0.14,Wunderground v.1.12,2013-03-08 21:31:00,
2013-03-08 16:37:00,43.9,22.8,29.97,NNE,23,1.0,13.0,43,0.05,,,0.16,Wunderground v.1.12,2013-03-08 21:37:00,
2013-03-08 16:38:00,43.9,22.8,29.97,NNW,347,1.0,4.0,43,0.05,,,0.15,Wunderground v.1.12,2013-03-08 21:38:00,
2013-03-08 16:43:00,43.9,22.8,29.97,NNW,333,1.0,3.0,43,0.05,,,0.15,Wunderground v.1.12,2013-03-08 21:43:00,
2013-03-08 16:48:00,43.9,22.8,29.98,NNW,338,1.0,1.0,43,0.04,,,0.15,Wunderground v.1.12,2013-03-08 21:48:00,
2013-03-08 16:53:00,43.9,22.8,29.98,NNW,331,1.0,4.0,43,0.04,,,0.16,Wunderground v.1.12,2013-03-08 21:53:00,
2013-03-08 16:59:00,44.1,21.3,29.98,NE,55,1.0,1.0,40,0.04,,,0.16,Wunderground v.1.12,2013-03-08 21:59:00,
2013-03-08 17:04:00,44.1,22.4,29.98,NNW,336,1.0,1.0,42,0.05,,,0.17,Wunderground v.1.12,2013-03-08 22:04:00,
2013-03-08 17:08:00,44.1,21.9,29.98,NNW,338,1.0,7.0,41,0.04,,,0.18,Wunderground v.1.12,2013-03-08 22:08:00,
2013-03-08 17:09:00,43.9,22.8,29.98,NNW,347,1.0,1.0,43,0.05,,,0.17,Wunderground v.1.12,2013-03-08 22:09:00,
2013-03-08 17:14:00,43.9,22.3,29.99,NNW,337,1.0,3.0,42,0.04,,,0.17,Wunderground v.1.12,2013-03-08 22:14:00,
2013-03-08 17:20:00,44.1,22.4,29.99,North,355,1.0,1.0,42,0.04,,,0.18,Wunderground v.1.12,2013-03-08 22:20:00,
2013-03-08 17:26:00,43.9,21.7,29.99,NNW,331,1.0,1.0,41,0.04,,,0.18,Wunderground v.1.12,2013-03-08 22:26:00,
2013-03-08 17:31:00,43.9,21.1,29.99,NNE,21,2.0,3.0,40,0.04,,,0.18,Wunderground v.1.12,2013-03-08 22:31:00,
2013-03-08 17:36:00,43.9,21.1,29.99,NNW,338,1.0,12.0,40,0.04,,,0.20,Wunderground v.1.12,2013-03-08 22:36:00,
2013-03-08 17:38:00,43.9,20.5,29.99,NNW,342,2.0,5.0,39,0.04,,,0.19,Wunderground v.1.12,2013-03-08 22:38:00,
2013-03-08 17:43:00,43.8,21.0,29.99,NNW,340,2.0,7.0,40,0.04,,,0.19,Wunderground v.1.12,2013-03-08 22:43:00,
2013-03-08 17:48:00,43.9,20.5,30.00,NNW,346,2.0,3.0,39,0.04,,,0.19,Wunderground v.1.12,2013-03-08 22:48:00,
2013-03-08 17:53:00,43.9,20.5,30.00,NNW,346,2.0,5.0,39,0.00,,,0.19,Wunderground v.1.12,2013-03-08 22:53:00,
2013-03-08 17:59:00,43.8,21.0,30.01,North,5,2.0,2.0,40,0.00,,,0.20,Wunderground v.1.12,2013-03-08 22:59:00,
2013-03-08 18:04:00,43.8,20.4,30.01,NNW,339,2.0,2.0,39,0.00,,,0.20,Wunderground v.1.12,2013-03-08 23:04:00,
2013-03-08 18:07:00,43.8,21.6,30.01,NNW,338,2.0,11.0,41,0.04,,,0.21,Wunderground v.1.12,2013-03-08 23:07:00,
2013-03-08 18:10:00,43.6,20.8,30.01,North,355,2.0,2.0,40,0.00,,,0.20,Wunderground v.1.12,2013-03-08 23:10:00,
2013-03-08 18:16:00,43.5,20.2,30.01,NW,321,1.0,4.0,39,0.00,,,0.21,Wunderground v.1.12,2013-03-08 23:16:00,
2013-03-08 18:21:00,43.5,20.2,30.01,ENE,71,3.0,5.0,39,0.00,,,0.21,Wunderground v.1.12,2013-03-08 23:21:00,
2013-03-08 18:28:00,43.5,19.5,30.01,North,9,3.0,3.0,38,0.00,,,0.21,Wunderground v.1.12,2013-03-08 23:28:00,
2013-03-08 18:33:00,43.5,20.2,30.02,NW,316,2.0,3.0,39,0.00,,,0.21,Wunderground v.1.12,2013-03-08 23:33:00,
2013-03-08 18:36:00,43.5,20.2,30.01,North,0,2.0,11.0,39,0.03,,,0.22,Wunderground v.1.12,2013-03-08 23:36:00,
2013-03-08 18:39:00,43.5,20.2,30.02,North,5,3.0,3.0,39,0.00,,,0.21,Wunderground v.1.12,2013-03-08 23:39:00,
2013-03-08 18:44:00,43.3,20.0,30.02,NNW,346,3.0,3.0,39,0.00,,,0.22,Wunderground v.1.12,2013-03-08 23:44:00,
2013-03-08 18:50:00,43.2,20.5,30.02,NNE,25,3.0,3.0,40,0.00,,,0.22,Wunderground v.1.12,2013-03-08 23:50:00,
2013-03-08 18:55:00,43.1,21.0,30.02,NNW,330,2.0,2.0,41,0.00,,,0.22,Wunderground v.1.12,2013-03-08 23:55:00,
2013-03-08 19:00:00,42.9,20.2,30.02,North,360,2.0,3.0,40,0.00,,,0.22,Wunderground v.1.12,2013-03-09 00:00:00,
2013-03-08 19:06:00,42.8,19.5,30.02,NNW,348,3.0,6.0,39,0.00,,,0.22,Wunderground v.1.12,2013-03-09 00:06:00,
2013-03-08 19:07:00,42.9,20.2,30.02,NNW,338,2.0,13.0,40,0.02,,,0.23,Wunderground v.1.12,2013-03-09 00:07:00,
2013-03-08 19:13:00,42.8,20.7,30.02,NNW,340,3.0,3.0,41,0.00,,,0.22,Wunderground v.1.12,2013-03-09 00:13:00,
2013-03-08 19:18:00,42.5,19.8,30.03,NNW,337,2.0,3.0,40,0.00,,,0.22,Wunderground v.1.12,2013-03-09 00:18:00,
2013-03-08 19:23:00,42.3,20.2,30.03,NNE,23,2.0,11.0,41,0.00,,,0.23,Wunderground v.1.12,2013-03-09 00:23:00,
2013-03-08 19:28:00,42.3,19.7,30.03,NE,44,3.0,7.0,40,0.00,,,0.23,Wunderground v.1.12,2013-03-09 00:28:00,
2013-03-08 19:34:00,42.3,20.2,30.03,NNE,28,3.0,3.0,41,0.00,,,0.23,Wunderground v.1.12,2013-03-09 00:34:00,
2013-03-08 19:38:00,42.3,19.7,30.03,NNW,338,3.0,13.0,40,0.02,,,0.23,Wunderground v.1.12,2013-03-09 00:38:00,
2013-03-08 19:40:00,42.2,19.6,30.03,NE,52,3.0,4.0,40,0.00,,,0.23,Wunderground v.1.12,2013-03-09 00:40:00,
2013-03-08 19:46:00,42.2,20.2,30.03,NE,44,3.0,3.0,41,0.00,,,0.23,Wunderground v.1.12,2013-03-09 00:46:00,
2013-03-08 19:51:00,42.2,19.6,30.03,North,355,3.0,10.0,40,0.00,,,0.23,Wunderground v.1.12,2013-03-09 00:51:00,
2013-03-08 19:58:00,42.1,20.1,30.03,NNW,344,2.0,3.0,41,0.00,,,0.23,Wunderground v.1.12,2013-03-09 00:58:00,
2013-03-08 20:03:00,42.1,18.9,30.04,ENE,57,3.0,4.0,39,0.00,,,0.23,Wunderground v.1.12,2013-03-09 01:03:00,
2013-03-08 20:06:00,42.1,20.1,30.04,NE,45,3.0,14.0,41,0.01,,,0.23,Wunderground v.1.12,2013-03-09 01:06:00,
2013-03-08 20:08:00,41.8,20.4,30.04,North,5,2.0,2.0,42,0.00,,,0.23,Wunderground v.1.12,2013-03-09 01:08:00,
2013-03-08 20:14:00,41.8,19.8,30.04,North,10,2.0,5.0,41,0.00,,,0.23,Wunderground v.1.12,2013-03-09 01:14:00,
2013-03-08 20:19:00,41.9,19.3,30.04,NNW,334,3.0,6.0,40,0.00,,,0.23,Wunderground v.1.12,2013-03-09 01:19:00,
2013-03-08 20:24:00,42.1,18.9,30.04,North,355,4.0,4.0,39,0.00,,,0.23,Wunderground v.1.12,2013-03-09 01:24:00,
2013-03-08 20:30:00,41.9,18.7,30.05,North,355,3.0,3.0,39,0.00,,,0.23,Wunderground v.1.12,2013-03-09 01:30:00,
2013-03-08 20:35:00,41.9,19.3,30.05,NW,319,2.0,5.0,40,0.00,,,0.23,Wunderground v.1.12,2013-03-09 01:35:00,
2013-03-08 20:41:00,41.9,18.7,30.05,ENE,75,3.0,5.0,39,0.00,,,0.23,Wunderground v.1.12,2013-03-09 01:41:00,
2013-03-08 20:48:00,41.8,19.8,30.05,NNW,333,2.0,3.0,41,0.00,,,0.23,Wunderground v.1.12,2013-03-09 01:48:00,
2013-03-08 20:53:00,41.6,19.0,30.05,North,355,2.0,2.0,40,0.00,,,0.23,Wunderground v.1.12,2013-03-09 01:53:00,
2013-03-08 20:58:00,41.5,19.5,30.05,NNW,345,2.0,3.0,41,0.00,,,0.23,Wunderground v.1.12,2013-03-09 01:58:00,
2013-03-08 21:03:00,41.6,19.0,30.05,NNW,332,2.0,4.0,40,0.00,,,0.23,Wunderground v.1.12,2013-03-09 02:03:00,
2013-03-08 21:08:00,41.6,19.0,30.05,NNW,338,2.0,13.0,40,0.00,,,0.24,Wunderground v.1.12,2013-03-09 02:08:00,
2013-03-08 21:09:00,41.6,19.0,30.05,North,355,3.0,3.0,40,0.00,,,0.24,Wunderground v.1.12,2013-03-09 02:09:00,
2013-03-08 21:15:00,41.5,19.5,30.06,North,5,3.0,3.0,41,0.00,,,0.24,Wunderground v.1.12,2013-03-09 02:15:00,
2013-03-08 21:21:00,41.2,19.2,30.06,NNW,333,2.0,3.0,41,0.00,,,0.24,Wunderground v.1.12,2013-03-09 02:21:00,
2013-03-08 21:28:00,41.2,19.2,30.06,NNW,340,3.0,3.0,41,0.00,,,0.24,Wunderground v.1.12,2013-03-09 02:28:00,
2013-03-08 21:33:00,41.2,18.7,30.06,NW,307,3.0,5.0,40,0.00,,,0.24,Wunderground v.1.12,2013-03-09 02:33:00,
2013-03-08 21:37:00,41.1,18.6,30.06,NNW,338,3.0,14.0,40,0.01,,,0.24,Wunderground v.1.12,2013-03-09 02:37:00,
2013-03-08 21:38:00,41.2,19.2,30.06,NNE,15,3.0,5.0,41,0.00,,,0.24,Wunderground v.1.12,2013-03-09 02:38:00,
2013-03-08 21:43:00,40.8,20.0,30.06,NNW,339,2.0,3.0,43,0.00,,,0.24,Wunderground v.1.12,2013-03-09 02:43:00,
2013-03-08 21:48:00,40.6,19.8,30.06,NNW,333,2.0,7.0,43,0.00,,,0.24,Wunderground v.1.12,2013-03-09 02:48:00,
2013-03-08 21:54:00,40.5,19.7,30.06,NNW,348,2.0,2.0,43,0.00,,,0.24,Wunderground v.1.12,2013-03-09 02:54:00,
2013-03-08 21:59:00,40.3,19.0,30.06,North,5,2.0,3.0,42,0.00,,,0.24,Wunderground v.1.12,2013-03-09 02:59:00,
2013-03-08 22:04:00,40.5,19.2,30.06,North,9,3.0,9.0,42,0.00,,,0.24,Wunderground v.1.12,2013-03-09 03:04:00,
2013-03-08 22:07:00,40.3,19.5,30.06,NNW,338,2.0,13.0,43,0.01,,,0.24,Wunderground v.1.12,2013-03-09 03:07:00,
2013-03-08 22:10:00,40.3,19.5,30.06,NE,42,2.0,3.0,43,0.00,,,0.24,Wunderground v.1.12,2013-03-09 03:10:00,
2013-03-08 22:16:00,40.2,19.5,30.07,North,360,2.0,2.0,43,0.00,,,0.24,Wunderground v.1.12,2013-03-09 03:16:00,
2013-03-08 22:23:00,40.1,19.4,30.07,NNW,332,2.0,4.0,43,0.00,,,0.24,Wunderground v.1.12,2013-03-09 03:23:00,
2013-03-08 22:28:00,40.2,19.5,30.07,NNE,32,3.0,3.0,43,0.00,,,0.24,Wunderground v.1.12,2013-03-09 03:28:00,
2013-03-08 22:33:00,40.1,19.4,30.07,East,83,3.0,3.0,43,0.00,,,0.24,Wunderground v.1.12,2013-03-09 03:33:00,
2013-03-08 22:37:00,40.2,19.5,30.07,North,0,2.0,11.0,43,0.00,,,0.24,Wunderground v.1.12,2013-03-09 03:37:00,
2013-03-08 22:38:00,40.1,19.4,30.07,NW,312,3.0,5.0,43,0.00,,,0.24,Wunderground v.1.12,2013-03-09 03:38:00,
2013-03-08 22:44:00,40.1,19.4,30.07,NNW,337,4.0,4.0,43,0.00,,,0.24,Wunderground v.1.12,2013-03-09 03:44:00,
2013-03-08 22:51:00,39.9,20.3,30.07,NNE,15,4.0,4.0,45,0.00,,,0.24,Wunderground v.1.12,2013-03-09 03:51:00,
2013-03-08 22:56:00,39.8,19.6,30.07,North,349,3.0,3.0,44,0.00,,,0.24,Wunderground v.1.12,2013-03-09 03:56:00,
2013-03-08 23:01:00,39.8,19.6,30.07,NNW,345,3.0,11.0,44,0.00,,,0.24,Wunderground v.1.12,2013-03-09 04:01:00,
2013-03-08 23:05:00,39.8,19.6,30.07,NNW,338,3.0,13.0,44,0.00,,,0.24,Wunderground v.1.12,2013-03-09 04:05:00,
2013-03-08 23:06:00,39.6,19.5,30.07,NE,42,3.0,5.0,44,0.00,,,0.24,Wunderground v.1.12,2013-03-09 04:06:00,
2013-03-08 23:11:00,39.3,20.2,30.07,NW,325,4.0,4.0,46,0.00,,,0.24,Wunderground v.1.12,2013-03-09 04:11:00,
2013-03-08 23:18:00,39.2,19.6,30.07,NNW,331,3.0,6.0,45,0.00,,,0.24,Wunderground v.1.12,2013-03-09 04:18:00,
2013-03-08 23:23:00,39.1,20.0,30.07,NNE,14,2.0,6.0,46,0.00,,,0.24,Wunderground v.1.12,2013-03-09 04:23:00,
2013-03-08 23:28:00,39.1,20.0,30.07,NNE,27,3.0,6.0,46,0.00,,,0.24,Wunderground v.1.12,2013-03-09 04:28:00,
2013-03-08 23:33:00,38.9,19.9,30.06,NE,40,3.0,3.0,46,0.00,,,0.24,Wunderground v.1.12,2013-03-09 04:33:00,
2013-03-08 23:36:00,39.1,20.0,30.06,NNW,338,3.0,12.0,46,0.00,,,0.24,Wunderground v.1.12,2013-03-09 04:36:00,
2013-03-08 23:38:00,38.9,19.9,30.06,NNE,22,3.0,4.0,46,0.00,,,0.24,Wunderground v.1.12,2013-03-09 04:38:00,
2013-03-08 23:43:00,38.9,19.9,30.06,NNE,16,3.0,3.0,46,0.00,,,0.24,Wunderground v.1.12,2013-03-09 04:43:00,
2013-03-08 23:48:00,38.9,20.4,30.06,NW,323,3.0,7.0,47,0.00,,,0.24,Wunderground v.1.12,2013-03-09 04:48:00,
2013-03-08 23:53:00,38.8,19.8,30.06,NNW,340,4.0,5.0,46,0.00,,,0.24,Wunderground v.1.12,2013-03-09 04:53:00,
2013-03-08 23:59:00,38.8,19.8,30.07,NNW,331,4.0,4.0,46,0.00,,,0.24,Wunderground v.1.12,2013-03-09 04:59:00,